Location: Bryngwyn
(53.0667°N, 4.2500°W)
Time: 23:09:45
(UTC+00:00)

Daily predictions for brighter satellites

Satellite Brightness Start Highest point End
(mag) Time Altitude Azimuth Time Altitude Azimuth Time Altitude Azimuth
Cosmos 2369 4.0 16:31:26 10° NNW 16:37:00 48° NE 16:42:32 10° SE
FengYun 1-2 T 4.5 16:34:52 10° SE 16:40:11 48° ENE 16:45:29 10° N
Cosmos 1862 4.2 16:37:51 10° NNW 16:41:46 53° W 16:45:40 10° S
Cosmos 1461 4.0 16:39:56 10° W 16:43:45 34° NNW 16:47:29 10° NNE
SL-16 R/B 3.4 16:40:28 10° NNW 16:44:54 23° NNE 16:49:19 10° E
Cosmos 2237 Rocket 4.2 16:43:24 10° NW 16:46:00 13° N 16:48:37 10° NNE
ERBS 2.3 16:43:07 10° WSW 16:46:18 70° NNW 16:49:31 10° ENE
Meteor PRIRODA 3.7 16:44:07 10° SSE 16:47:40 54° ENE 16:51:13 10° N
NOAA 12 4.2 16:43:23 10° SSE 16:48:37 62° ENE 16:53:52 10° N
Iridium 2 4.0 16:45:56 10° N 16:49:41 69° W 16:53:24 10° S
CORIOLIS 4.5 16:47:07 10° SE 16:52:13 44° ENE 16:57:21 10° N
Cosmos 2082 Rocket 3.6 16:48:55 10° SE 16:52:48 19° E 16:56:40 10° ENE
Meteor 1-25 Rocket 4.3 16:47:59 10° N 16:53:30 57° ENE 16:59:00 10° SSE
MOS 1 Rocket 3.6 16:49:41 10° N 16:54:46 76° WNW 16:59:30 10° SSW
Cosmos 1500 Rocket 3.6 16:50:33 10° N 16:54:59 63° ENE 16:59:22 10° SSE
Cosmos 2333 Rocket 3.9 16:53:52 10° NNW 16:57:13 15° NNE 17:00:33 10° NE
Cosmos 468 Rocket 4.4 16:52:56 10° S 16:57:47 43° ESE 17:02:43 10° NE
USA 306 2.9 16:55:02 10° W 16:59:18 79° N 17:03:33 10° E
deb Kosmos-1763 4.4 16:56:36 10° SW 16:59:57 57° WNW 17:03:21 10° NNE
Cosmos 1898 Rocket 3.5 16:54:53 10° NNW 17:00:11 85° ENE 17:05:25 10° SSE
Cosmos 2278 4.0 16:55:09 10° NNW 17:00:38 44° NE 17:06:04 10° ESE
Cosmos 1818 4.0 16:56:15 10° NW 17:01:30 43° NNE 17:06:41 10° ESE
Cosmos 1602 4.0 16:58:22 10° N 17:02:05 43° ENE 17:05:48 10° SSE
Sich 1 3.5 16:58:08 10° N 17:02:10 37° ENE 17:06:11 10° SE
Cosmos 1464 Rocket 4.1 16:56:14 10° S 17:02:36 84° E 17:09:01 10° NNE
Nadezhda 4 Rocket 4.1 16:57:38 10° N 17:04:00 89° E 17:10:21 10° S
CZ-4B DEB 4.4 16:59:48 10° SE 17:05:04 48° ENE 17:10:20 10° N
ADEOS 4.3 17:00:04 10° S 17:05:14 61° WSW 17:10:26 10° NNW
Cosmos 2221 2.5 17:01:05 10° S 17:05:22 90° ESE 17:09:44 10° N
SL-16 R/B 4.2 17:02:20 10° NW 17:05:40 15° NNW 17:09:00 10° NNE
Cosmos 1939 Rocket 3.0 17:02:31 10° SSE 17:06:32 56° ENE 17:10:32 10° N
Cosmos 1805 Rocket 3.7 17:02:39 10° N 17:06:54 51° ENE 17:11:07 10° SSE
ARGOS 4.0 17:04:11 10° ESE 17:08:39 27° ENE 17:13:06 10° N
SL-16 R/B 4.3 17:04:44 10° N 17:09:46 27° NW 17:14:49 10° WSW
NOSS 2-1 (E) 3.9 17:08:42 10° WSW 17:11:47 39° NNW 17:14:57 12° NE
Cosmos 1833 Rocket 3.0 17:06:46 10° S 17:12:09 49° ESE 17:17:33 10° NE
Spot 1 4.4 17:08:55 10° NNE 17:13:35 66° ESE 17:18:29 10° S
NOSS 2-2 (C) 4.2 17:09:21 10° NW 17:14:09 88° NE 17:20:53 10° SE
Cosmos 1842 Rocket 3.7 17:10:46 10° SSW 17:15:14 85° W 17:19:46 10° N
COSMOS 2406 3.7 17:10:46 10° S 17:16:08 42° ESE 17:21:11 12° NE
Cosmos 2219 Rocket 3.9 17:14:54 10° NNW 17:18:10 15° NNE 17:20:36 12° NE
USA 307 2.9 17:14:14 10° W 17:18:31 77° N 17:22:00 15° E
GEOS 3 Rocket 4.2 17:13:48 10° E 17:18:33 37° NNE 17:23:16 10° NW
deb Chang Zheng 4 4.4 17:16:06 10° ESE 17:19:46 28° ENE 17:23:28 10° N
Cosmos 1092 Rocket 4.0 17:14:39 10° N 17:21:03 75° ENE 17:27:23 10° SSE
Cosmos 1606 3.6 17:17:57 10° SSW 17:21:37 48° WNW 17:25:21 10° N
Cosmos 1428 Rocket 4.4 17:15:40 10° N 17:21:47 67° ENE 17:27:55 10° SSE
USA 267 3.7 17:16:34 13° ENE 17:22:18 51° SE 17:28:38 10° SW
CZ-2C R/B 3.3 17:18:15 10° S 17:23:05 67° WSW 17:27:50 10° NNW
Cosmos 1782 3.4 17:20:39 10° SSE 17:24:18 35° E 17:27:49 11° NNE
CZ-2C R/B 3.7 17:21:47 12° NE 17:25:20 22° E 17:29:20 10° SE
Cosmos 1500 3.2 17:23:09 10° N 17:26:50 52° ENE 17:30:29 10° SSE
CZ-4C R/B 2.9 17:21:13 10° NW 17:28:04 79° NE 17:36:18 10° SE
Cosmos 1763 Rocket 3.4 17:24:03 10° SSW 17:29:06 76° ESE 17:34:16 10° NNE
CZ-2D R/B 3.4 17:27:16 10° SE 17:30:58 48° ENE 17:34:40 10° N
H-2A R/B 4.3 17:32:55 13° NNE 17:32:55 13° NNE 17:33:48 10° NNE
Cosmos 1340 Rocket 4.1 17:27:35 10° NNW 17:31:30 45° W 17:35:24 10° SSW
H-2A R/B 2.0 17:29:21 10° SE 17:34:20 55° ENE 17:39:14 10° N
CZ-4C R/B 4.3 17:30:46 10° N 17:34:31 45° WNW 17:38:03 10° SW
CZ-4B R/B 3.3 17:30:42 10° SE 17:35:50 47° ENE 17:40:56 10° N
ATLAS CENTAUR R/B 3.1 17:32:29 10° W 17:36:13 26° NNW 17:39:25 14° NNE
Cosmos 841 Rocket 3.8 17:31:44 10° S 17:36:36 43° ESE 17:40:21 16° NE
SeaSat 1 3.8 17:32:56 10° NNE 17:37:20 33° NW 17:41:42 10° WSW
PAYLOAD B 4.2 17:32:06 10° SSE 17:37:39 66° ENE 17:43:13 10° NNW
Cosmos 1937 Rocket 3.9 17:33:11 10° NNW 17:38:30 68° WSW 17:43:45 10° SSE
USA 308 2.8 17:36:48 10° W 17:41:04 78° N 17:43:39 23° E
Lacrosse 5 rocket 1.1 17:38:04 10° WNW 17:41:57 80° NNE 17:44:49 19° ESE
COSMO-SKYMED 1 3.6 17:41:40 23° ENE 17:42:50 25° E 17:46:28 10° SSE
Cosmos 1125 Rocket 4.0 17:38:14 10° NNW 17:43:05 36° NE 17:47:31 12° ESE
Cosmos 1627 Rocket 4.5 17:37:05 10° N 17:43:19 89° E 17:49:26 10° S
SMAP 3.3 17:39:14 10° S 17:43:53 73° WSW 17:48:34 10° NNW
Meteor 2-21 4.4 17:40:04 10° N 17:46:12 86° E 17:52:16 10° S
Cosmos 372 Rocket 4.0 17:41:10 10° NNW 17:46:26 85° WSW 17:51:42 10° SSE
NOSS 3-4 (A) 4.4 17:41:00 10° NW 17:46:50 36° N 17:50:44 21° ENE
NOSS 3-4 (C) 4.4 17:41:06 10° NW 17:46:55 36° N 17:50:49 21° ENE
AQUARIUS 4.3 17:43:36 10° S 17:48:05 76° WSW 17:52:36 10° NNW
COSMOS 2455 3.1 17:42:51 10° SSW 17:48:38 50° ESE 17:52:29 21° NE
Cosmos 1633 Rocket 3.1 17:45:02 10° N 17:49:18 51° ENE 17:53:35 10° SSE
ATLAS 2AS CENTAUR R/B 3.7 17:42:21 10° WNW 17:49:24 37° N 17:54:01 19° NE
ISS -1.9 17:46:41 10° W 17:49:41 30° SSW 17:52:43 10° SE
Cosmos 2034 Rocket 4.4 17:44:13 10° SSW 17:50:20 66° WNW 17:56:30 10° N
Cosmos 2360 Rocket 3.2 17:45:38 10° NNW 17:50:28 27° NE 17:52:12 24° ENE
Cosmos 44 Rocket 3.2 17:46:38 10° NW 17:51:38 69° NE 17:56:04 12° SE
Cosmos 2279 Rocket 4.2 17:45:45 10° SSE 17:51:38 48° E 17:57:33 10° NNE
Cosmos 2266 Rocket 4.4 17:45:49 10° N 17:51:47 40° ENE 17:57:46 10° SE
SL-24 R/B - RUBIN 2 4.5 17:50:49 10° NW 17:55:16 50° SW 17:59:27 10° SSE
Meteor 1-11 Rocket 4.2 17:50:26 10° N 17:55:35 36° ENE 18:00:48 10° SE
Cosmos 1666 2.5 17:52:25 10° N 17:56:08 61° ENE 17:59:49 10° SSE
YAOGAN 1 3.5 17:56:49 27° NE 17:56:49 27° NE 18:00:04 10° N
CZ-4 R/B 3.1 17:59:29 17° NNE 17:59:29 17° NNE 18:00:46 10° N
USA 234 3.9 17:51:59 10° SE 17:58:23 55° SW 18:04:48 10° WNW
Meteor 1-26 Rocket 4.3 17:53:13 10° S 17:59:12 75° E 18:05:15 10° NNE
Cosmos 1151 Rocket 3.2 17:58:10 10° SSE 18:02:21 49° E 18:04:41 24° NNE
PSLV R/B 4.0 17:59:24 10° S 18:03:05 69° WSW 18:06:51 10° NNW
COSMOS 2428 4.2 17:59:15 10° NNW 18:03:14 19° NNE 18:03:52 18° NE
USA 305 2.8 18:02:49 10° W 18:07:05 85° NNE 18:08:40 38° E
Cosmos 1933 3.9 18:04:05 10° SSW 18:08:04 58° WNW 18:12:04 10° N
CZ-4 R/B 4.4 18:04:36 10° SSE 18:08:39 57° ENE 18:12:44 10° N
Cosmos 2026 Rocket 4.4 18:03:49 10° NNW 18:09:54 64° W 18:15:53 10° S
Cosmos 1634 Rocket 4.0 18:03:37 10° S 18:09:58 90° E 18:16:21 10° N
Cosmos 2322 Rocket 2.5 18:05:58 10° NNW 18:11:28 46° NE 18:13:54 30° ESE
Okean O Rocket 1.5 18:10:06 10° SSE 18:14:31 70° ENE 18:18:59 10° N
Feng Yun 1-1 Rocket 4.4 18:10:10 10° SE 18:15:55 56° ENE 18:21:37 10° N
Cosmos 1666 Rocket 3.7 18:11:39 10° NNW 18:16:08 78° W 18:20:31 10° S
Cosmos 1980 Rocket 3.0 18:11:15 10° NW 18:16:44 52° WSW 18:22:11 10° S
Cosmos 1470 Rocket 3.5 18:15:01 10° N 18:19:27 61° ENE 18:23:53 10° SSE
Cosmos 540 Rocket 3.6 18:14:57 10° SSW 18:20:04 74° WNW 18:23:37 20° NNE
Cosmos 1812 2.6 18:18:39 10° S 18:22:31 85° E 18:23:54 38° NNE
ERBS 3.1 18:19:29 10° WNW 18:22:15 38° NNW 18:22:15 38° NNW
Cosmos 1328 Rocket 3.6 18:18:42 10° S 18:23:04 57° E 18:24:03 46° NE
SJ-11-01 4.2 18:19:42 10° SSE 18:24:27 86° ENE 18:29:14 10° NNW
Meteor 1-5 Rocket 4.5 18:20:51 10° NNW 18:26:52 77° W 18:32:46 10° S
SL-16 R/B 2.1 18:24:19 10° NNW 18:30:02 71° NE 18:33:21 26° SE
SKYMED 2 3.4 18:30:16 52° NE 18:31:11 68° ESE 18:35:30 10° S
Cosmos 2237 Rocket 4.0 18:29:18 10° NNW 18:32:29 16° NNE 18:32:29 16° NNE
Cosmos 1655 Rocket 3.9 18:27:06 10° N 18:33:32 74° ENE 18:39:54 10° SSE
Cosmos 2298 Rocket 3.9 18:28:09 10° NNW 18:33:33 84° ENE 18:38:49 10° SSE
Cosmos 1570 Rocket 3.9 18:28:44 10° SSW 18:33:55 68° ESE 18:35:27 45° NE
Cosmos 1814 Rocket 3.8 18:30:29 10° SSW 18:35:41 78° ESE 18:37:31 41° NE
Cosmos 2082 Rocket 2.1 18:30:27 10° SSW 18:36:08 90° SSW 18:38:46 34° NNE
Meteor 2-8 Rocket 4.3 18:30:34 10° S 18:36:41 73° E 18:42:51 10° NNE
ATLAS CENTAUR R/B 2.0 18:29:21 10° WSW 18:37:06 89° SSE 18:37:44 65° ENE
USA 306 2.7 18:35:01 10° WNW 18:39:16 82° SSW 18:39:34 75° SE
Cosmos 2180 Rocket 4.4 18:36:22 10° S 18:42:41 81° E 18:48:58 10° NNE
Cosmos 2333 Rocket 3.1 18:38:08 10° NNW 18:42:44 33° NNE 18:42:44 33° NNE
Cosmos 1818 4.1 18:39:55 10° NW 18:45:19 59° SW 18:49:43 15° SSE
ARGOS 3.5 18:43:09 10° S 18:48:33 66° WSW 18:53:56 10° NNW
MOS 1-B Rocket 4.1 18:44:04 10° NNE 18:49:53 76° WNW 18:56:26 10° SSW
NOAA 15 4.4 18:46:15 10° SSE 18:51:33 82° ENE 18:56:51 10° NNW
SL-16 R/B 4.2 18:49:37 10° NNW 18:52:22 13° N 18:52:27 13° N
Cosmos 1833 Rocket 3.7 18:50:56 10° WSW 18:56:13 41° NW 18:59:15 23° N
GEOS 3 Rocket 3.6 18:54:52 49° SE 18:56:20 83° SW 19:01:33 10° NW
USA 307 3.1 18:54:12 10° WNW 18:58:01 66° WSW 18:58:01 66° WSW
COSMOS 2406 4.1 18:54:55 10° WSW 19:00:26 47° NW 19:03:15 27° N
Cosmos 2219 Rocket 3.3 18:58:40 10° NNW 19:02:19 30° N 19:02:19 30° N
USA 267 3.2 19:03:54 53° ENE 19:05:38 81° NNW 19:12:10 10° WSW
CZ-2C R/B 2.8 19:03:18 27° N 19:06:09 67° WNW 19:11:16 10° SSW
SL-08 RB Rocket 4.3 19:03:03 10° S 19:07:36 57° W 19:12:09 10° NNW
IRS-1C Rocket 4.2 19:09:34 60° N 19:09:34 60° N 19:13:58 10° NNW
Cosmos 2208 Rocket 4.0 19:03:58 10° SSW 19:09:23 83° WNW 19:10:00 70° N
H-2A R/B 4.1 19:09:46 10° SSW 19:14:04 27° W 19:18:18 10° NW
ATLAS CENTAUR R/B 3.7 19:13:06 10° NW 19:15:31 19° NNW 19:15:31 19° NNW
CZ-4C R/B 4.2 19:09:55 10° NW 19:16:30 38° WSW 19:24:01 10° S
COSMO-SKYMED 1 3.5 19:18:53 44° NW 19:19:12 45° WNW 19:23:20 10° SW
Lacrosse 5 rocket 3.0 19:17:20 10° WNW 19:20:26 29° SW 19:20:26 29° SW
USA 308 4.1 19:16:45 10° WNW 19:19:41 41° W 19:19:41 41° W
Cosmos 1125 Rocket 4.4 19:20:17 10° NW 19:25:19 47° WSW 19:27:55 26° SSW
Cosmos 2237 4.3 19:22:30 10° NW 19:28:11 74° WSW 19:28:11 74° WSW
CZ-4 R/B 4.0 19:35:28 14° NNW 19:35:28 14° NNW 19:36:07 10° NNW
YAOGAN 1 4.2 19:33:58 30° NW 19:33:58 30° NW 19:36:29 10° NNW
COSMOS 2455 3.5 19:28:52 10° WSW 19:34:41 48° NW 19:35:37 44° NNW
Cosmos 2360 Rocket 2.6 19:29:27 10° NNW 19:33:59 58° NW 19:33:59 58° NW
NOSS 3-4 (A) 3.9 19:32:14 10° NW 19:38:11 61° N 19:38:11 61° N
NOSS 3-4 (C) 3.9 19:32:20 10° NW 19:38:16 61° N 19:38:16 61° N
ATLAS 5 CENTAUR R/B 4.0 19:36:06 10° WNW 19:40:25 25° WSW 19:40:25 25° WSW
ATLAS 2AS CENTAUR R/B 3.4 19:34:49 10° NW 19:41:27 45° N 19:41:27 45° N
COSMOS 2428 4.3 19:43:17 10° NNW 19:45:53 26° NNW 19:45:53 26° NNW
Okean O Rocket 4.3 19:48:21 10° SW 19:51:22 18° W 19:54:24 10° NW
Cosmos 2322 Rocket 3.2 19:50:11 10° NW 19:55:32 43° WSW 19:55:46 42° WSW
SL-16 R/B 4.1 20:09:06 10° NW 20:13:39 25° WSW 20:15:18 22° SW
Cosmos 2237 Rocket 4.5 20:13:09 10° NNW 20:14:19 16° NNW 20:14:19 16° NNW
Cosmos 2082 Rocket 4.0 20:16:15 10° W 20:20:38 26° NW 20:20:38 26° NW
Cosmos 2333 Rocket 4.0 20:22:22 10° NW 20:24:45 26° NW 20:24:45 26° NW
Cosmos 2219 Rocket 4.5 20:42:35 10° NW 20:44:02 18° NW 20:44:02 18° NW
